TimePDT,TemperatureF,Dew PointF,Humidity,Sea Level PressureIn,VisibilityMPH,Wind Direction,Wind SpeedMPH,Gust SpeedMPH,PrecipitationIn,Events,Conditions,WindDirDegrees,DateUTC
12:25 AM,55.4,51.8,88,29.87,10.0,West,8.1,-,N/A,,Mostly Cloudy,270,2012-06-18 07:25:00
12:54 AM,55.9,52.0,87,29.84,10.0,West,8.1,-,N/A,,Overcast,280,2012-06-18 07:54:00
1:02 AM,55.4,51.8,88,29.87,10.0,West,8.1,-,N/A,,Overcast,270,2012-06-18 08:02:00
1:54 AM,55.0,51.1,86,29.84,10.0,WNW,10.4,-,N/A,,Overcast,290,2012-06-18 08:54:00
2:54 AM,55.0,51.1,86,29.86,10.0,West,10.4,-,N/A,,Overcast,280,2012-06-18 09:54:00
3:54 AM,55.0,51.1,86,29.85,10.0,WNW,8.1,-,N/A,,Overcast,290,2012-06-18 10:54:00
4:54 AM,55.0,50.0,83,29.86,10.0,West,9.2,-,N/A,,Overcast,280,2012-06-18 11:54:00
5:54 AM,55.0,50.0,83,29.86,10.0,West,9.2,-,N/A,,Overcast,280,2012-06-18 12:54:00
6:02 AM,55.4,50.0,82,29.89,10.0,WNW,10.4,-,N/A,,Overcast,290,2012-06-18 13:02:00
6:54 AM,55.9,50.0,80,29.87,10.0,West,8.1,-,N/A,,Overcast,270,2012-06-18 13:54:00
7:54 AM,55.9,50.0,80,29.88,10.0,West,6.9,-,N/A,,Overcast,270,2012-06-18 14:54:00
8:54 AM,55.9,50.0,80,29.88,10.0,SSW,15.0,-,N/A,,Overcast,200,2012-06-18 15:54:00
9:02 AM,55.4,50.0,82,29.91,10.0,SSW,11.5,-,N/A,,Overcast,210,2012-06-18 16:02:00
9:54 AM,57.9,51.1,78,29.88,10.0,SSW,11.5,-,N/A,,Overcast,200,2012-06-18 16:54:00
10:54 AM,62.1,51.1,67,29.87,10.0,SSW,10.4,-,N/A,,Unknown,200,2012-06-18 17:54:00
11:14 AM,62.6,51.8,68,29.89,10.0,SSW,12.7,-,N/A,,Scattered Clouds,200,2012-06-18 18:14:00
11:54 AM,64.0,52.0,65,29.87,10.0,SSW,13.8,-,N/A,,Clear,200,2012-06-18 18:54:00
12:54 PM,64.9,52.0,63,29.86,10.0,SSW,15.0,-,N/A,,Clear,200,2012-06-18 19:54:00
1:54 PM,66.9,52.0,59,29.83,10.0,South,18.4,-,N/A,,Clear,190,2012-06-18 20:54:00
2:54 PM,66.9,51.1,57,29.82,10.0,SSW,19.6,24.2,N/A,,Clear,200,2012-06-18 21:54:00
3:54 PM,68.0,52.0,56,29.80,10.0,SSW,18.4,24.2,N/A,,Clear,200,2012-06-18 22:54:00
4:54 PM,64.9,51.1,61,29.79,10.0,South,19.6,27.6,N/A,,Clear,180,2012-06-18 23:54:00
5:54 PM,64.0,51.1,63,29.78,10.0,South,18.4,25.3,N/A,,Clear,190,2012-06-19 00:54:00
6:54 PM,63.0,51.1,65,29.77,10.0,South,18.4,23.0,N/A,,Clear,190,2012-06-19 01:54:00
7:54 PM,59.0,51.1,75,29.77,10.0,South,15.0,23.0,N/A,,Clear,190,2012-06-19 02:54:00
8:54 PM,55.9,50.0,80,29.77,9.0,South,18.4,23.0,N/A,,Clear,190,2012-06-19 03:54:00
9:54 PM,55.0,48.9,80,29.79,9.0,South,17.3,26.5,N/A,,Clear,190,2012-06-19 04:54:00
10:54 PM,55.0,48.9,80,29.81,9.0,South,17.3,23.0,N/A,,Clear,190,2012-06-19 05:54:00
11:54 PM,54.0,48.9,83,29.82,9.0,South,13.8,-,N/A,,Partly Cloudy,190,2012-06-19 06:54:00